Date,TemperatureHighF,TemperatureAvgF,TemperatureLowF,DewpointHighF,DewpointAvgF,DewpointLowF,HumidityHigh,HumidityAvg,HumidityLow,PressureMaxIn,PressureMinIn,WindSpeedMaxMPH,WindSpeedAvgMPH,GustSpeedMaxMPH,PrecipitationSumIn
2013-1-1,23,19,13,-100,-100,-100,0,0,100,0.00,40.00,13,8,0,0.01
2013-1-2,33,21,9,-100,-100,-100,0,0,100,0.00,40.00,7,3,0,0.02
2013-1-3,38,30,23,-100,-100,-100,0,0,100,0.00,40.00,10,3,0,0.10
2013-1-4,39,27,18,-100,-100,-100,0,0,100,0.00,40.00,5,3,0,0.03
2013-1-5,42,36,29,-100,-100,-100,0,0,100,0.00,40.00,6,3,0,0.02
2013-1-6,39,31,26,-100,-100,-100,0,0,100,0.00,40.00,14,6,0,0.01
2013-1-7,48,34,23,-100,-100,-100,0,0,100,0.00,40.00,7,3,0,0.00
2013-1-8,51,40,30,-100,-100,-100,0,0,100,0.00,40.00,7,4,0,0.00
2013-1-9,49,41,34,-100,-100,-100,0,0,100,0.00,40.00,9,4,0,0.00
2013-1-10,45,40,32,-100,-100,-100,0,0,100,0.00,40.00,9,4,0,0.31
2013-1-11,61,53,42,-100,-100,-100,0,0,100,0.00,40.00,10,5,0,0.28
2013-1-12,58,42,28,-100,-100,-100,0,0,100,0.00,40.00,19,9,0,0.02
2013-1-13,28,22,18,-100,-100,-100,0,0,100,0.00,40.00,18,9,0,0.02
2013-1-14,28,19,13,-100,-100,-100,0,0,100,0.00,40.00,11,5,0,0.04
2013-1-15,31,21,13,-100,-100,-100,0,0,100,0.00,40.00,6,3,0,0.01
2013-1-16,43,30,18,-100,-100,-100,0,0,100,0.00,40.00,7,2,0,0.01
2013-1-17,36,32,26,-100,-100,-100,0,0,100,0.00,40.00,17,7,0,0.00
2013-1-18,56,41,26,-100,-100,-100,0,0,100,0.00,40.00,5,3,0,0.00
2013-1-19,59,49,42,-100,-100,-100,0,0,100,0.00,40.00,16,4,0,0.00
2013-1-20,44,26,21,-100,-100,-100,0,0,100,0.00,40.00,20,12,0,0.00
2013-1-21,20,16,13,-100,-100,-100,0,0,100,0.00,40.00,21,10,0,0.00
2013-1-22,17,14,10,-100,-100,-100,0,0,100,0.00,40.00,15,4,0,0.00
2013-1-23,40,25,13,-100,-100,-100,0,0,100,0.00,40.00,19,7,0,0.00
2013-1-24,26,20,14,-100,-100,-100,0,0,100,0.00,40.00,20,9,0,0.00
2013-1-25,43,33,25,-100,-100,-100,0,0,100,0.00,40.00,10,4,0,0.00
2013-1-26,36,28,19,-100,-100,-100,0,0,100,0.00,40.00,12,6,0,0.00
2013-1-27,51,36,29,-100,-100,-100,0,0,100,0.00,40.00,12,7,0,0.19
2013-1-28,66,58,50,-100,-100,-100,0,0,100,0.00,40.00,8,4,0,0.01
2013-1-29,63,57,43,-100,-100,-100,0,0,100,0.00,40.00,13,4,0,1.19
2013-1-30,41,33,26,-100,-100,-100,0,0,100,0.00,40.00,19,10,0,0.65
2013-1-31,25,18,9,-100,-100,-100,0,0,100,0.00,40.00,25,12,0,0.00
2013-2-1,28,16,5,-100,-100,-100,0,0,100,0.00,40.00,9,4,0,0.00
2013-2-2,33,30,26,-100,-100,-100,0,0,100,0.00,40.00,20,7,0,0.00
2013-2-3,36,29,25,-100,-100,-100,0,0,100,0.00,40.00,20,7,0,0.03
2013-2-4,41,32,27,-100,-100,-100,0,0,100,0.00,40.00,18,8,0,0.03
2013-2-5,49,36,27,-100,-100,-100,0,0,100,0.00,40.00,15,5,0,0.00
2013-2-6,48,38,26,-100,-100,-100,0,0,100,0.00,40.00,9,4,0,0.00
2013-2-7,44,39,35,-100,-100,-100,0,0,100,0.00,40.00,19,7,0,0.50
2013-2-8,35,33,32,-100,-100,-100,0,0,100,0.00,40.00,19,10,0,0.01
2013-2-9,40,34,30,-100,-100,-100,0,0,100,0.00,40.00,14,8,0,0.09
2013-2-10,63,47,37,-100,-100,-100,0,0,100,0.00,40.00,14,7,0,0.47
2013-2-11,47,40,33,-100,-100,-100,0,0,100,0.00,40.00,15,7,0,0.01
2013-2-12,43,34,28,-100,-100,-100,0,0,100,0.00,40.00,7,3,0,0.00
2013-2-13,50,39,30,-100,-100,-100,0,0,100,0.00,40.00,7,2,0,0.00
2013-2-14,49,43,39,-100,-100,-100,0,0,100,0.00,40.00,14,8,0,0.00
2013-2-15,39,32,27,-100,-100,-100,0,0,100,0.00,40.00,20,14,0,0.00
2013-2-16,36,27,20,-100,-100,-100,0,0,100,0.00,40.00,16,8,0,0.00
2013-2-17,44,34,23,-100,-100,-100,0,0,100,0.00,40.00,16,8,0,0.00
2013-2-18,56,45,31,-100,-100,-100,0,0,100,0.00,40.00,23,10,0,0.30
2013-2-19,30,25,20,-100,-100,-100,0,0,100,0.00,40.00,14,10,0,0.01
2013-2-20,24,20,13,-100,-100,-100,0,0,100,0.00,40.00,20,8,0,0.00
2013-2-21,31,25,20,-100,-100,-100,0,0,100,0.00,40.00,11,6,0,0.00
2013-2-22,33,30,26,-100,-100,-100,0,0,100,0.00,40.00,8,3,0,0.11
2013-2-23,35,24,16,-100,-100,-100,0,0,100,0.00,40.00,7,4,0,0.12
2013-2-24,44,28,12,-100,-100,-100,0,0,100,0.00,40.00,8,3,0,0.06
2013-2-25,43,34,25,-100,-100,-100,0,0,100,0.00,40.00,11,4,0,0.00
2013-2-26,38,34,33,-100,-100,-100,0,0,100,0.00,40.00,16,12,0,0.41
2013-2-27,34,33,32,-100,-100,-100,0,0,100,0.00,40.00,11,8,0,0.31
2013-2-28,34,32,31,-100,-100,-100,0,0,100,0.00,40.00,15,10,0,0.01
2013-3-1,33,30,27,-100,-100,-100,0,0,100,0.00,40.00,14,11,0,0.04
2013-3-2,32,28,22,-100,-100,-100,0,0,100,0.00,40.00,20,12,0,0.04
2013-3-3,36,27,16,-100,-100,-100,0,0,100,0.00,40.00,9,4,0,0.00
2013-3-4,44,37,33,-100,-100,-100,0,0,100,0.00,40.00,12,7,0,0.00
2013-3-5,35,33,32,-100,-100,-100,0,0,100,0.00,40.00,23,13,0,0.10
2013-3-6,34,30,24,-100,-100,-100,0,0,100,0.00,40.00,21,13,0,0.00
2013-3-7,44,30,19,-100,-100,-100,0,0,100,0.00,40.00,8,4,0,0.00
2013-3-8,48,39,31,-100,-100,-100,0,0,100,0.00,40.00,12,8,0,0.00
2013-3-9,59,46,38,-100,-100,-100,0,0,100,0.00,40.00,14,7,0,0.69
2013-3-10,53,48,42,-100,-100,-100,0,0,100,0.00,40.00,7,3,0,1.00
2013-3-11,41,35,32,-100,-100,-100,0,0,100,0.00,40.00,10,4,0,0.08
2013-3-12,43,34,26,-100,-100,-100,0,0,100,0.00,40.00,14,7,0,0.01
2013-3-13,39,31,26,-100,-100,-100,0,0,100,0.00,40.00,19,11,0,0.00
2013-3-14,60,40,29,-100,-100,-100,0,0,100,0.00,40.00,10,5,0,0.00
2013-3-15,65,47,33,-100,-100,-100,0,0,100,0.00,40.00,8,4,0,0.00
2013-3-16,52,42,38,-100,-100,-100,0,0,100,0.00,40.00,18,11,0,0.00
2013-3-17,38,36,33,-100,-100,-100,0,0,100,0.00,40.00,13,8,0,0.12
2013-3-18,49,39,34,-100,-100,-100,0,0,100,0.00,40.00,18,9,0,0.01
2013-3-19,44,35,29,-100,-100,-100,0,0,100,0.00,40.00,15,7,0,0.00
2013-3-20,38,30,23,-100,-100,-100,0,0,100,0.00,40.00,24,14,0,0.00
2013-3-21,38,28,20,-100,-100,-100,0,0,100,0.00,40.00,13,6,0,0.00
2013-3-22,40,33,25,-100,-100,-100,0,0,100,0.00,40.00,9,4,0,0.00
2013-3-23,51,42,35,-100,-100,-100,0,0,100,0.00,40.00,13,6,0,0.00
2013-3-24,42,32,31,-100,-100,-100,0,0,100,0.00,40.00,23,16,0,0.08
2013-3-25,35,32,30,-100,-100,-100,0,0,100,0.00,40.00,18,11,0,0.15
2013-3-26,40,35,31,-100,-100,-100,0,0,100,0.00,40.00,17,8,0,0.01
2013-3-27,47,36,26,-100,-100,-100,0,0,100,0.00,40.00,6,4,0,0.00
2013-3-28,52,42,34,-100,-100,-100,0,0,100,0.00,40.00,11,6,0,0.00
2013-3-29,61,47,35,-100,-100,-100,0,0,100,0.00,40.00,7,3,0,0.00
2013-3-30,55,47,40,-100,-100,-100,0,0,100,0.00,40.00,13,5,0,0.05
2013-3-31,62,53,46,-100,-100,-100,0,0,100,0.00,40.00,19,8,0,0.01
2013-4-1,45,40,34,-100,-100,-100,0,0,100,0.00,40.00,23,14,0,0.01
2013-4-2,48,38,30,-100,-100,-100,0,0,100,0.00,40.00,11,7,0,0.00
2013-4-3,52,41,30,-100,-100,-100,0,0,100,0.00,40.00,9,5,0,0.00
2013-4-4,63,47,34,-100,-100,-100,0,0,100,0.00,40.00,8,4,0,0.00
2013-4-5,65,53,42,-100,-100,-100,0,0,100,0.00,40.00,11,6,0,0.00
2013-4-6,74,63,54,-100,-100,-100,0,0,100,0.00,40.00,16,7,0,0.00
2013-4-7,71,60,47,-100,-100,-100,0,0,100,0.00,40.00,11,4,0,0.00
2013-4-8,71,63,56,-100,-100,-100,0,0,100,0.00,40.00,8,3,0,0.19
2013-4-9,78,70,61,-100,-100,-100,0,0,100,0.00,40.00,10,5,0,0.02
2013-4-10,71,57,49,-100,-100,-100,0,0,100,0.00,40.00,17,7,0,1.63
2013-4-11,52,44,40,-100,-100,-100,0,0,100,0.00,40.00,7,2,0,1.27
2013-4-12,45,41,39,-100,-100,-100,0,0,100,0.00,40.00,9,3,0,0.00
2013-4-13,56,47,35,-100,-100,-100,0,0,100,0.00,40.00,12,4,0,0.00
2013-4-14,79,64,49,-100,-100,-100,0,0,100,0.00,40.00,16,10,0,0.13
2013-4-15,59,55,47,-100,-100,-100,0,0,100,0.00,40.00,16,6,0,0.57
2013-4-16,51,47,43,-100,-100,-100,0,0,100,0.00,40.00,15,8,0,0.72
2013-4-17,56,51,47,-100,-100,-100,0,0,100,0.00,40.00,16,7,0,0.36
2013-4-18,64,53,41,-100,-100,-100,0,0,100,0.00,40.00,14,5,0,2.02
2013-4-19,49,42,37,-100,-100,-100,0,0,100,0.00,40.00,18,8,0,0.03
2013-4-20,54,43,33,-100,-100,-100,0,0,100,0.00,40.00,10,5,0,0.00
2013-4-21,59,51,44,-100,-100,-100,0,0,100,0.00,40.00,12,10,0,0.00
2013-4-22,65,58,45,-100,-100,-100,0,0,100,0.00,40.00,10,6,0,0.00
2013-4-23,59,46,40,-100,-100,-100,0,0,100,0.00,40.00,23,13,0,0.31
2013-4-24,54,43,36,-100,-100,-100,0,0,100,0.00,40.00,20,8,0,0.07
2013-4-25,64,51,41,-100,-100,-100,0,0,100,0.00,40.00,13,5,0,0.01
2013-4-26,59,55,48,-100,-100,-100,0,0,100,0.00,40.00,12,5,0,0.01
2013-4-27,53,50,47,-100,-100,-100,0,0,100,0.00,40.00,9,4,0,0.32
2013-4-28,62,54,51,-100,-100,-100,0,0,100,0.00,40.00,9,5,0,0.22
2013-4-29,83,63,47,-100,-100,-100,0,0,100,0.00,40.00,12,7,0,0.01
2013-4-30,87,77,66,-100,-100,-100,0,0,100,0.00,40.00,11,5,0,0.01
2013-5-1,82,72,58,-100,-100,-100,0,0,100,0.00,40.00,7,4,0,0.00
2013-5-2,68,51,41,-100,-100,-100,0,0,100,0.00,40.00,23,15,0,0.24
2013-5-3,43,41,39,-100,-100,-100,0,0,100,0.00,40.00,22,15,0,1.92
2013-5-4,49,44,39,-100,-100,-100,0,0,100,0.00,40.00,5,2,0,0.26
2013-5-5,65,54,45,-100,-100,-100,0,0,100,0.00,40.00,15,5,0,0.11
2013-5-6,73,62,53,-100,-100,-100,0,0,100,0.00,40.00,13,6,0,0.04
2013-5-7,82,67,59,-100,-100,-100,0,0,100,0.00,40.00,9,4,0,0.01
2013-5-8,81,66,54,-100,-100,-100,0,0,100,0.00,40.00,7,2,0,0.00
2013-5-9,74,64,60,-100,-100,-100,0,0,100,0.00,40.00,10,3,0,1.43
2013-5-10,63,57,55,-100,-100,-100,0,0,100,0.00,40.00,16,8,0,0.56
2013-5-11,62,56,49,-100,-100,-100,0,0,100,0.00,40.00,23,10,0,0.00
2013-5-12,61,52,43,-100,-100,-100,0,0,100,0.00,40.00,15,7,0,0.00
2013-5-13,74,59,43,-100,-100,-100,0,0,100,0.00,40.00,8,3,0,0.00
2013-5-14,92,75,57,-100,-100,-100,0,0,100,0.00,40.00,7,3,0,0.00
2013-5-15,90,78,68,-100,-100,-100,0,0,100,0.00,40.00,6,2,0,0.43
2013-5-16,83,67,65,-100,-100,-100,0,0,100,0.00,40.00,8,3,0,0.54
2013-5-17,75,67,60,-100,-100,-100,0,0,100,0.00,40.00,8,3,0,0.00
2013-5-18,79,70,63,-100,-100,-100,0,0,100,0.00,40.00,11,5,0,0.00
2013-5-19,89,78,70,-100,-100,-100,0,0,100,0.00,40.00,16,8,0,0.01
2013-5-20,82,71,63,-100,-100,-100,0,0,100,0.00,40.00,15,7,0,1.10
2013-5-21,80,72,65,-100,-100,-100,0,0,100,0.00,40.00,6,2,0,0.73
2013-5-22,72,66,63,-100,-100,-100,0,0,100,0.00,40.00,8,3,0,0.00
2013-5-23,68,61,57,-100,-100,-100,0,0,100,0.00,40.00,20,8,0,0.00
2013-5-24,68,59,51,-100,-100,-100,0,0,100,0.00,40.00,9,5,0,0.00
2013-5-25,67,60,55,-100,-100,-100,0,0,100,0.00,40.00,16,6,0,0.44
2013-5-26,75,65,55,-100,-100,-100,0,0,100,0.00,40.00,12,7,0,0.04
2013-5-27,75,67,65,-100,-100,-100,0,0,100,0.00,40.00,16,4,0,1.00
2013-5-28,79,74,66,-100,-100,-100,0,0,100,0.00,40.00,23,6,0,0.20
2013-5-29,87,75,63,-100,-100,-100,0,0,100,0.00,40.00,12,6,0,0.16
2013-5-30,77,75,74,-100,-100,-100,0,0,100,0.00,40.00,11,8,0,0.01
2013-5-31,72,68,64,-100,-100,-100,0,0,100,0.00,40.00,10,4,0,0.41
2013-6-1,79,69,62,-100,-100,-100,0,0,100,0.00,40.00,10,4,0,0.11
2013-6-2,64,62,59,-100,-100,-100,0,0,100,0.00,40.00,14,9,0,0.00
2013-6-3,70,62,54,-100,-100,-100,0,0,100,0.00,40.00,8,4,0,0.00
2013-6-4,76,66,55,-100,-100,-100,0,0,100,0.00,40.00,9,4,0,0.00
2013-6-5,78,68,58,-100,-100,-100,0,0,100,0.00,40.00,6,2,0,0.00
2013-6-6,75,69,66,-100,-100,-100,0,0,100,0.00,40.00,13,9,0,0.00
2013-6-7,74,66,59,-100,-100,-100,0,0,100,0.00,40.00,11,6,0,0.00
2013-6-8,80,69,58,-100,-100,-100,0,0,100,0.00,40.00,5,2,0,0.00
2013-6-9,74,68,63,-100,-100,-100,0,0,100,0.00,40.00,10,5,0,0.53
2013-6-10,78,68,63,-100,-100,-100,0,0,100,0.00,40.00,10,4,0,0.40
2013-6-11,91,76,63,-100,-100,-100,0,0,100,0.00,40.00,9,3,0,0.01
2013-6-12,96,82,70,-100,-100,-100,0,0,100,0.00,40.00,11,2,0,0.00
2013-6-13,90,76,68,-100,-100,-100,0,0,100,0.00,40.00,17,8,0,0.00
2013-6-14,78,71,63,-100,-100,-100,0,0,100,0.00,40.00,10,4,0,0.00
2013-6-15,92,75,68,-100,-100,-100,0,0,100,0.00,40.00,8,4,0,1.07
2013-6-16,81,73,68,-100,-100,-100,0,0,100,0.00,40.00,6,2,0,1.14
2013-6-17,87,76,70,-100,-100,-100,0,0,100,0.00,40.00,6,2,0,0.01
2013-6-18,84,75,67,-100,-100,-100,0,0,100,0.00,40.00,12,6,0,0.00
2013-6-19,88,74,66,-100,-100,-100,0,0,100,0.00,40.00,5,3,0,0.00
2013-6-20,88,76,67,-100,-100,-100,0,0,100,0.00,40.00,8,3,0,0.00
2013-6-24,90,86,82,-100,-100,-100,0,0,100,0.00,40.00,8,4,0,0.00
2013-6-25,92,84,75,-100,-100,-100,0,0,100,0.00,40.00,6,3,0,0.00
2013-6-26,91,81,72,-100,-100,-100,0,0,100,0.00,40.00,7,4,0,0.06
2013-6-27,87,81,74,-100,-100,-100,0,0,100,0.00,40.00,8,4,0,0.01
2013-6-28,86,80,73,-100,-100,-100,0,0,100,0.00,40.00,17,8,0,0.00
2013-6-29,79,72,65,-100,-100,-100,0,0,100,0.00,40.00,18,9,0,0.42
2013-6-30,78,70,66,-100,-100,-100,0,0,100,0.00,40.00,14,11,0,0.01
2013-7-1,80,72,64,-100,-100,-100,0,0,100,0.00,40.00,16,10,0,0.01
2013-7-2,79,71,63,-100,-100,-100,0,0,100,0.00,40.00,14,7,0,0.00
2013-7-3,83,72,62,-100,-100,-100,0,0,100,0.00,40.00,5,2,0,0.00
2013-7-4,83,74,64,-100,-100,-100,0,0,100,0.00,40.00,6,2,0,0.00
2013-7-5,85,77,66,-100,-100,-100,0,0,100,0.00,40.00,11,4,0,0.00
2013-7-6,86,74,67,-100,-100,-100,0,0,100,0.00,40.00,8,3,0,0.00
2013-7-7,94,82,73,-100,-100,-100,0,0,100,0.00,40.00,8,3,0,0.00
2013-7-8,91,81,74,-100,-100,-100,0,0,100,0.00,40.00,7,3,0,0.02
2013-7-9,96,86,78,-100,-100,-100,0,0,100,0.00,40.00,5,2,0,0.01
2013-7-10,86,79,73,-100,-100,-100,0,0,100,0.00,40.00,15,5,0,0.09
2013-7-11,90,76,66,-100,-100,-100,0,0,100,0.00,40.00,6,3,0,0.01
2013-7-12,84,74,64,-100,-100,-100,0,0,100,0.00,40.00,9,4,0,0.00
2013-7-13,88,75,63,-100,-100,-100,0,0,100,0.00,40.00,7,3,0,0.00
2013-7-14,87,77,67,-100,-100,-100,0,0,100,0.00,40.00,8,4,0,0.00
2013-7-15,89,80,72,-100,-100,-100,0,0,100,0.00,40.00,7,3,0,0.07
2013-7-16,90,81,74,-100,-100,-100,0,0,100,0.00,40.00,7,3,0,0.07
2013-7-17,95,84,75,-100,-100,-100,0,0,100,0.00,40.00,4,2,0,0.01
2013-7-18,97,88,77,-100,-100,-100,0,0,100,0.00,40.00,5,2,0,0.00
2013-7-19,98,88,79,-100,-100,-100,0,0,100,0.00,40.00,6,2,0,0.00
2013-7-20,91,82,75,-100,-100,-100,0,0,100,0.00,40.00,11,5,0,0.00
2013-7-21,82,76,71,-100,-100,-100,0,0,100,0.00,40.00,9,2,0,0.41
2013-7-22,91,78,70,-100,-100,-100,0,0,100,0.00,40.00,5,2,0,0.34
2013-7-23,84,78,72,-100,-100,-100,0,0,100,0.00,40.00,14,7,0,0.01
2013-7-24,81,72,66,-100,-100,-100,0,0,100,0.00,40.00,9,4,0,0.00
2013-7-25,85,73,61,-100,-100,-100,0,0,100,0.00,40.00,6,2,0,0.00
2013-7-26,79,74,71,-100,-100,-100,0,0,100,0.00,40.00,10,3,0,0.25
2013-7-27,73,67,60,-100,-100,-100,0,0,100,0.00,40.00,17,9,0,0.25
2013-7-28,80,68,57,-100,-100,-100,0,0,100,0.00,40.00,9,4,0,0.00
2013-7-29,78,69,58,-100,-100,-100,0,0,100,0.00,40.00,7,2,0,0.00
2013-7-30,78,72,66,-100,-100,-100,0,0,100,0.00,40.00,9,5,0,0.33
2013-7-31,76,72,70,-100,-100,-100,0,0,100,0.00,40.00,10,5,0,0.01
2013-8-1,95,78,68,-100,-100,-100,0,0,100,0.00,40.00,7,3,0,0.00
2013-8-2,82,74,68,-100,-100,-100,0,0,100,0.00,40.00,5,2,0,0.56
2013-8-3,85,74,68,-100,-100,-100,0,0,100,0.00,40.00,9,4,0,0.01
2013-8-4,80,72,63,-100,-100,-100,0,0,100,0.00,40.00,6,2,0,0.01
2013-8-5,77,74,69,-100,-100,-100,0,0,100,0.00,40.00,9,4,0,0.00
2013-8-6,87,77,70,-100,-100,-100,0,0,100,0.00,40.00,6,3,0,0.00
2013-8-7,87,78,73,-100,-100,-100,0,0,100,0.00,40.00,14,3,0,0.00
2013-8-8,80,74,68,-100,-100,-100,0,0,100,0.00,40.00,9,4,0,0.00
2013-8-9,83,75,69,-100,-100,-100,0,0,100,0.00,40.00,7,2,0,0.00
2013-8-10,84,75,68,-100,-100,-100,0,0,100,0.00,40.00,11,5,0,0.00
2013-8-11,84,74,63,-100,-100,-100,0,0,100,0.00,40.00,7,2,0,0.00
2013-8-12,80,74,68,-100,-100,-100,0,0,100,0.00,40.00,5,2,0,0.00
2013-8-13,82,71,66,-100,-100,-100,0,0,100,0.00,40.00,11,6,0,0.00
2013-8-14,76,65,56,-100,-100,-100,0,0,100,0.00,40.00,5,2,0,0.00
2013-8-15,75,62,58,-100,-100,-100,0,0,100,0.00,40.00,6,2,0,0.00
2013-8-16,79,67,62,-100,-100,-100,0,0,100,0.00,40.00,6,2,0,0.00
2013-8-17,82,69,60,-100,-100,-100,0,0,100,0.00,40.00,6,2,0,0.00
2013-8-18,84,72,61,-100,-100,-100,0,0,100,0.00,40.00,5,2,0,0.00
2013-8-19,84,71,64,-100,-100,-100,0,0,100,0.00,40.00,7,2,0,0.00
2013-8-20,87,77,68,-100,-100,-100,0,0,100,0.00,40.00,7,3,0,0.00
2013-8-21,91,80,70,-100,-100,-100,0,0,100,0.00,40.00,3,2,0,0.00
2013-8-22,92,80,73,-100,-100,-100,0,0,100,0.00,40.00,6,2,0,0.00
2013-8-23,89,80,72,-100,-100,-100,0,0,100,0.00,40.00,6,3,0,0.00
2013-8-24,89,79,70,-100,-100,-100,0,0,100,0.00,40.00,7,3,0,0.00
2013-8-25,92,82,73,-100,-100,-100,0,0,100,0.00,40.00,8,3,0,0.00
2013-8-26,96,83,72,-100,-100,-100,0,0,100,0.00,40.00,5,2,0,0.00
2013-8-27,95,82,75,-100,-100,-100,0,0,100,0.00,40.00,4,2,0,0.00
2013-8-28,99,91,83,-100,-100,-100,0,0,100,0.00,40.00,10,4,0,0.00
2013-8-29,100,85,74,-100,-100,-100,0,0,100,0.00,40.00,9,3,0,0.00
2013-8-30,102,88,77,-100,-100,-100,0,0,100,0.00,40.00,3,1,0,0.00
2013-8-31,96,86,80,-100,-100,-100,0,0,100,0.00,40.00,8,3,0,0.00
2013-9-1,90,81,73,-100,-100,-100,0,0,100,0.00,40.00,12,4,0,0.00
2013-9-2,83,74,66,-100,-100,-100,0,0,100,0.00,40.00,12,8,0,0.00
2013-9-3,85,70,59,-100,-100,-100,0,0,100,0.00,40.00,7,3,0,0.00
2013-9-4,88,72,59,-100,-100,-100,0,0,100,0.00,40.00,6,2,0,0.00
2013-9-5,88,75,64,-100,-100,-100,0,0,100,0.00,40.00,7,2,0,0.00
2013-9-6,87,76,65,-100,-100,-100,0,0,100,0.00,40.00,10,3,0,0.00
2013-9-7,96,80,67,-100,-100,-100,0,0,100,0.00,40.00,5,2,0,0.00
2013-9-8,88,80,72,-100,-100,-100,0,0,100,0.00,40.00,14,4,0,0.95
2013-9-9,98,84,73,-100,-100,-100,0,0,100,0.00,40.00,5,2,0,0.01
2013-9-10,97,84,75,-100,-100,-100,0,0,100,0.00,40.00,4,2,0,0.00
2013-9-11,97,84,75,-100,-100,-100,0,0,100,0.00,40.00,6,2,0,0.00
2013-9-12,83,75,67,-100,-100,-100,0,0,100,0.00,40.00,16,8,0,0.56
2013-9-13,76,66,57,-100,-100,-100,0,0,100,0.00,40.00,11,5,0,0.01
2013-9-14,74,62,52,-100,-100,-100,0,0,100,0.00,40.00,7,3,0,0.00
2013-9-15,80,67,62,-100,-100,-100,0,0,100,0.00,40.00,14,6,0,0.07
2013-9-16,72,64,59,-100,-100,-100,0,0,100,0.00,40.00,10,4,0,0.04
2013-9-17,68,62,57,-100,-100,-100,0,0,100,0.00,40.00,9,4,0,0.00
2013-9-18,78,67,65,-100,-100,-100,0,0,100,0.00,40.00,7,2,0,0.00
2013-9-19,91,80,70,-100,-100,-100,0,0,100,0.00,40.00,9,4,0,0.21
2013-9-20,72,68,60,-100,-100,-100,0,0,100,0.00,40.00,14,5,0,0.26
2013-9-21,71,61,56,-100,-100,-100,0,0,100,0.00,40.00,14,6,0,0.02
2013-9-22,76,61,52,-100,-100,-100,0,0,100,0.00,40.00,5,2,0,0.00
2013-9-23,74,63,53,-100,-100,-100,0,0,100,0.00,40.00,10,4,0,0.00
2013-9-24,77,66,56,-100,-100,-100,0,0,100,0.00,40.00,10,5,0,0.00
2013-9-25,83,70,61,-100,-100,-100,0,0,100,0.00,40.00,5,2,0,0.00
2013-9-26,82,71,61,-100,-100,-100,0,0,100,0.00,40.00,8,3,0,0.00
2013-9-27,81,72,62,-100,-100,-100,0,0,100,0.00,40.00,11,5,0,0.00
2013-9-28,78,70,61,-100,-100,-100,0,0,100,0.00,40.00,13,5,0,0.74
2013-9-29,78,62,53,-100,-100,-100,0,0,100,0.00,40.00,11,3,0,0.44
2013-9-30,78,63,50,-100,-100,-100,0,0,100,0.00,40.00,6,2,0,0.00
2013-10-1,74,71,68,-100,-100,-100,0,0,100,0.00,40.00,3,1,0,0.00
2013-10-2,84,73,65,-100,-100,-100,0,0,100,0.00,40.00,6,2,0,0.00
2013-10-3,86,75,70,-100,-100,-100,0,0,100,0.00,40.00,11,3,0,0.06
2013-10-4,87,77,70,-100,-100,-100,0,0,100,0.00,40.00,10,4,0,0.06
2013-10-5,78,66,53,-100,-100,-100,0,0,100,0.00,40.00,5,2,0,0.18
2013-10-6,54,50,45,-100,-100,-100,0,0,100,0.00,40.00,7,2,0,0.06
2013-10-7,72,58,51,-100,-100,-100,0,0,100,0.00,40.00,7,4,0,0.05
2013-10-8,75,62,50,-100,-100,-100,0,0,100,0.00,40.00,8,3,0,0.00
2013-10-9,72,60,50,-100,-100,-100,0,0,100,0.00,40.00,7,3,0,0.00
2013-10-10,76,63,53,-100,-100,-100,0,0,100,0.00,40.00,8,2,0,0.00
2013-10-11,77,67,58,-100,-100,-100,0,0,100,0.00,40.00,12,5,0,0.00
2013-10-12,72,66,60,-100,-100,-100,0,0,100,0.00,40.00,16,5,0,0.00
2013-10-13,71,59,51,-100,-100,-100,0,0,100,0.00,40.00,5,2,0,0.00
2013-10-14,67,57,45,-100,-100,-100,0,0,100,0.00,40.00,9,5,0,0.00
2013-10-15,68,62,52,-100,-100,-100,0,0,100,0.00,40.00,9,4,0,0.30
2013-10-16,55,51,46,-100,-100,-100,0,0,100,0.00,40.00,7,3,0,0.01
2013-10-17,66,54,47,-100,-100,-100,0,0,100,0.00,40.00,4,2,0,0.05
2013-10-18,55,49,42,-100,-100,-100,0,0,100,0.00,40.00,11,6,0,0.03
2013-10-19,59,47,38,-100,-100,-100,0,0,100,0.00,40.00,5,2,0,0.05
2013-10-20,73,58,47,-100,-100,-100,0,0,100,0.00,40.00,4,2,0,0.00
2013-10-21,60,50,44,-100,-100,-100,0,0,100,0.00,40.00,18,7,0,0.00
2013-10-22,58,46,39,-100,-100,-100,0,0,100,0.00,40.00,25,8,0,0.05
2013-10-23,48,41,36,-100,-100,-100,0,0,100,0.00,40.00,13,6,0,0.01
2013-10-24,46,40,35,-100,-100,-100,0,0,100,0.00,40.00,17,8,0,0.00
2013-10-25,57,43,31,-100,-100,-100,0,0,100,0.00,40.00,6,2,0,0.00
2013-10-26,59,49,42,-100,-100,-100,0,0,100,0.00,40.00,17,6,0,0.00
2013-10-27,61,45,33,-100,-100,-100,0,0,100,0.00,40.00,5,2,0,0.00
2013-10-28,65,48,35,-100,-100,-100,0,0,100,0.00,40.00,6,1,0,0.00
2013-10-29,56,51,45,-100,-100,-100,0,0,100,0.00,40.00,9,3,0,0.05
2013-10-30,66,60,55,-100,-100,-100,0,0,100,0.00,40.00,6,4,0,0.65
2013-10-31,65,57,47,-100,-100,-100,0,0,100,0.00,40.00,13,5,0,1.55
2013-11-1,58,50,46,-100,-100,-100,0,0,100,0.00,40.00,10,4,0,0.01
2013-11-2,54,48,42,-100,-100,-100,0,0,100,0.00,40.00,16,7,0,0.00
2013-11-3,57,46,34,-100,-100,-100,0,0,100,0.00,40.00,13,6,0,0.00
2013-11-4,61,54,49,-100,-100,-100,0,0,100,0.00,40.00,11,6,0,0.00
2013-11-5,57,56,53,-100,-100,-100,0,0,100,0.00,40.00,11,6,0,0.35
2013-11-6,59,48,40,-100,-100,-100,0,0,100,0.00,40.00,14,6,0,0.59
2013-11-7,54,43,34,-100,-100,-100,0,0,100,0.00,40.00,9,4,0,0.01
2013-11-8,58,46,32,-100,-100,-100,0,0,100,0.00,40.00,12,5,0,0.00
2013-11-9,67,55,48,-100,-100,-100,0,0,100,0.00,40.00,11,4,0,0.00
2013-11-10,58,46,40,-100,-100,-100,0,0,100,0.00,40.00,13,5,0,0.00
2013-11-11,62,46,31,-100,-100,-100,0,0,100,0.00,40.00,23,10,0,0.00
2013-11-12,35,28,23,-100,-100,-100,0,0,100,0.00,40.00,17,9,0,0.00
2013-11-13,47,34,21,-100,-100,-100,0,0,100,0.00,40.00,8,3,0,0.00
2013-11-14,56,45,38,-100,-100,-100,0,0,100,0.00,40.00,8,2,0,0.00
2013-11-15,58,49,42,-100,-100,-100,0,0,100,0.00,40.00,7,3,0,0.00
2013-11-16,65,58,49,-100,-100,-100,0,0,100,0.00,40.00,14,8,0,0.06
2013-11-17,75,62,47,-100,-100,-100,0,0,100,0.00,40.00,16,6,0,0.01
2013-11-18,52,45,38,-100,-100,-100,0,0,100,0.00,40.00,15,5,0,0.00
2013-11-19,48,40,31,-100,-100,-100,0,0,100,0.00,40.00,11,5,0,0.00
2013-11-20,44,41,39,-100,-100,-100,0,0,100,0.00,40.00,14,7,0,0.29
2013-11-21,50,47,43,-100,-100,-100,0,0,100,0.00,40.00,13,4,0,0.29
2013-11-22,43,36,29,-100,-100,-100,0,0,100,0.00,40.00,19,14,0,0.14
2013-11-23,29,25,19,-100,-100,-100,0,0,100,0.00,40.00,21,14,0,0.00
2013-11-24,31,22,14,-100,-100,-100,0,0,100,0.00,40.00,10,4,0,0.00
2013-11-25,37,33,28,-100,-100,-100,0,0,100,0.00,40.00,6,2,0,0.00
2013-11-26,37,31,25,-100,-100,-100,0,0,100,0.00,40.00,22,12,0,0.00
2013-11-27,29,23,18,-100,-100,-100,0,0,100,0.00,40.00,18,8,0,0.00
2013-11-28,42,32,22,-100,-100,-100,0,0,100,0.00,40.00,11,5,0,0.00
2013-11-29,41,31,21,-100,-100,-100,0,0,100,0.00,40.00,7,3,0,0.00
2013-11-30,56,40,29,-100,-100,-100,0,0,100,0.00,40.00,6,2,0,0.00
2013-12-1,51,37,29,-100,-100,-100,0,0,100,0.00,40.00,4,1,0,0.00
2013-12-2,50,41,36,-100,-100,-100,0,0,100,0.00,40.00,5,2,0,0.00
2013-12-3,53,45,36,-100,-100,-100,0,0,100,0.00,40.00,8,3,0,0.00
2013-12-4,63,49,32,-100,-100,-100,0,0,100,0.00,40.00,10,4,0,0.00
2013-12-5,31,25,22,-100,-100,-100,0,0,100,0.00,40.00,14,10,0,0.00
2013-12-6,23,19,16,-100,-100,-100,0,0,100,0.00,40.00,17,14,0,0.00
2013-12-7,26,17,10,-100,-100,-100,0,0,100,0.00,40.00,13,7,0,0.00
2013-12-8,26,23,18,-100,-100,-100,0,0,100,0.00,40.00,6,3,0,0.00
2013-12-9,26,19,14,-100,-100,-100,0,0,100,0.00,40.00,9,4,0,0.00
2013-12-10,34,21,9,-100,-100,-100,0,0,100,0.00,40.00,7,2,0,0.00
2013-12-11,28,22,8,-100,-100,-100,0,0,100,0.00,40.00,21,8,0,0.00
2013-12-12,41,23,7,-100,-100,-100,0,0,100,0.00,40.00,5,2,0,0.00
2013-12-13,38,32,25,-100,-100,-100,0,0,100,0.00,40.00,7,3,0,0.59
2013-12-14,33,29,24,-100,-100,-100,0,0,100,0.00,40.00,3,0,0,0.13
2013-12-15,31,24,18,-100,-100,-100,0,0,100,0.00,40.00,3,1,0,0.01
2013-12-16,29,25,21,-100,-100,-100,0,0,100,0.00,40.00,12,3,0,0.00
2013-12-17,42,32,24,-100,-100,-100,0,0,100,0.00,40.00,9,3,0,0.27
2013-12-18,50,37,20,-100,-100,-100,0,0,100,0.00,40.00,7,3,0,0.03
2013-12-19,57,49,39,-100,-100,-100,0,0,100,0.00,40.00,8,4,0,0.01
2013-12-20,52,41,32,-100,-100,-100,0,0,100,0.00,40.00,10,6,0,0.04
2013-12-21,31,30,30,-100,-100,-100,0,0,100,0.00,40.00,10,5,0,0.01
2013-12-22,33,29,20,-100,-100,-100,0,0,100,0.00,40.00,2,0,0,0.00
2013-12-23,21,14,6,-100,-100,-100,0,0,100,0.00,40.00,0,0,0,0.00
2013-12-24,23,12,1,-100,-100,-100,0,0,100,0.00,40.00,10,3,0,0.01
2013-12-25,34,29,23,-100,-100,-100,0,0,100,0.00,40.00,6,2,0,0.07
2013-12-26,45,34,24,-100,-100,-100,0,0,100,0.00,40.00,6,2,0,0.18
2013-12-27,51,40,30,-100,-100,-100,0,0,100,0.00,40.00,5,2,0,0.01
2013-12-28,58,44,39,-100,-100,-100,0,0,100,0.00,40.00,4,2,0,0.00
2013-12-29,44,26,14,-100,-100,-100,0,0,100,0.00,40.00,22,13,0,0.00
2013-12-30,28,16,6,-100,-100,-100,0,0,100,0.00,40.00,15,4,0,0.00
2013-12-31,41,28,19,-100,-100,-100,0,0,100,0.00,40.00,9,3,0,0.00
2014-1-1,28,23,18,-100,-100,-100,0,0,100,0.00,40.00,16,8,0,0.00
2014-1-2,18,14,6,-100,-100,-100,0,0,100,0.00,40.00,18,12,0,0.00